• MPC Preparation (Info)

  • MPEC 2014-S70 : 2014 SZ144

    The following Minor Planet Electronic Circular may be linked-to from your own Web pages, but must not otherwise be redistributed electronically.

    A form allowing access to any MPEC is at the bottom of this page.


    Read MPEC 2014-S69 Read MPEC 2014-S71


    M.P.E.C. 2014-S70                                Issued 2014 Sept. 24, 14:09 UT
    
         The Minor Planet Electronic Circulars contain information on unusual
             minor planets and routine data on comets.  They are published
       on behalf of Commission 20 of the International Astronomical Union by the
              Minor Planet Center, Smithsonian Astrophysical Observatory,
                              Cambridge, MA 02138, U.S.A.
    
                 Prepared using the Tamkin Foundation Computer Network
    
                                  MPC@CFA.HARVARD.EDU
                URL https://www.minorplanetcenter.net/    ISSN 1523-6714
    
                                      2014 SZ144
    
    Observations:
         K14SE4Z* C2014 09 19.33010 23 13 56.888+00 26 36.90         20.7 wLES070F51
         K14SE4Z  C2014 09 19.34154 23 13 58.087+00 26 46.83         20.6 wLES070F51
         K14SE4Z  C2014 09 19.35298 23 13 59.270+00 26 56.71         20.7 wLES070F51
         K14SE4Z  C2014 09 19.36442 23 14 00.449+00 27 06.61         20.7 wLES070F51
         K14SE4Z  C2014 09 24.25273 23 36 05.00 +02 35 19.7          19.2 VqES070703
         K14SE4Z  C2014 09 24.25926 23 36 07.84 +02 35 39.2          18.9 VqES070703
         K14SE4Z  C2014 09 24.26579 23 36 10.73 +02 35 57.2          19.2 VqES070703
         K14SE4Z  C2014 09 24.27235 23 36 13.63 +02 36 16.6          19.3 VqES070703
         K14SE4Z  C2014 09 24.30690 23 36 28.69 +02 37 56.2          19.0 VqES070G96
         K14SE4Z  C2014 09 24.31349 23 36 31.60 +02 38 15.6          19.0 VqES070G96
         K14SE4Z  C2014 09 24.32009 23 36 34.53 +02 38 34.7          18.9 VqES070G96
         K14SE4Z  C2014 09 24.32668 23 36 37.49 +02 38 54.2          18.9 VqES070G96
         K14SE4Z KC2014 09 24.57009 23 38 47.63 +02 55 37.8          19.0 RtES070474
         K14SE4Z KC2014 09 24.57115 23 38 48.17 +02 55 41.1          19.0 RtES070474
         K14SE4Z KC2014 09 24.57222 23 38 48.70 +02 55 44.6          18.6 RtES070474
         K14SE4Z KC2014 09 24.57329 23 38 49.26 +02 55 48.3          18.9 RtES070474
         K14SE4Z KC2014 09 24.57435 23 38 49.77 +02 55 51.9          19.5 RtES070474
    
    Observer details:
    474 Mount John Observatory, Lake Tekapo.  Observers A. C. Gilmore,
        P. M. Kilmartin.  Measurer P. M. Kilmartin.  1.0-m f/7.7 reflector + CCD.
    703 Catalina Sky Survey.  Observer A. R. Gibbs.  Measurers E. J. Christensen,
        A. R. Gibbs, A. D. Grauer, R. E. Hill, J. A. Johnson, R. A. Kowalski,
        S. M. Larson, F. C. Shelly.  0.68-m Schmidt + CCD.
    F51 Pan-STARRS 1, Haleakala.  Observers N. Primak, A. Schultz, T. Goggia,
        M. Willman.  Measurers B. Bolin, K. Chambers, S. Chastel, L. Denneau,
        H. Flewelling, M. Huber, E. Magnier, E. Schunova, R. Wainscoat, C. Waters.
        1.8-m Ritchey-Chretien + CCD.
    G96 Mt. Lemmon Survey.  Observer E. J. Christensen.  Measurers
        E. J. Christensen, A. R. Gibbs, A. D. Grauer, R. E. Hill, J. A. Johnson,
        R. A. Kowalski, S. M. Larson, F. C. Shelly.  1.5-m reflector + CCD.
    
    Orbital elements:
    2014 SZ144                                               Earth MOID = 0.0008 AU
    Epoch 2014 Dec. 9.0 TT = JDT 2457000.5                  MPC
    M   9.45808              (2000.0)            P               Q
    n   0.27408098     Peri.  230.59947     +0.54287983     -0.83980125
    a   2.3472001      Node   186.52420     +0.78072293     +0.50639751
    e   0.6310666      Incl.    1.97627     +0.30944014     +0.19569217
    P   3.60           H   25.3           G   0.15           U   7
    Residuals in seconds of arc
    140919 F51  0.0   0.0     140924 703  0.6+  0.0     140924 474  0.1+  0.1-
    140919 F51  0.0   0.0     140924 703  1.2+  0.4+    140924 474  0.2+  0.2-
    140919 F51  0.0   0.0     140924 G96  0.5-  0.3-    140924 474  0.0   0.2-
    140919 F51  0.0   0.0     140924 G96  0.6-  0.2-    140924 474  0.3+  0.1+
    140924 703  0.1-  0.2+    140924 G96  0.7-  0.4-    140924 474  0.1-  0.2+
    140924 703  0.1-  0.8+    140924 G96  0.4-  0.2-
    
    Ephemeris:
    2014 SZ144               a,e,i = 2.35, 0.63, 2                   q = 0.8660
    Date    TT    R. A. (2000) Decl.     Delta      r     Elong.  Phase     V
    2014 08 25    22 57 25.9 -01 45 47   0.3015  1.3054   165.9    10.9    24.0
    ...
    2014 09 09    23 02 10.2 -00 51 50   0.1652  1.1720   175.1     4.2    22.1
    ...
    2014 09 17    23 09 25.4 -00 00 30   0.09999 1.1045   172.6     6.7    21.0
    ...
    2014 09 23    23 27 24.2 +01 47 05   0.05354 1.0566   171.9     7.7    19.6
    2014 09 24    23 34 00.6 +02 25 16   0.04601 1.0490   172.6     7.1    19.2
    2014 09 25    23 43 13.4 +03 17 57   0.03856 1.0414   173.7     6.1    18.8
    ...
    2014 10 01    07 33 41.7 +17 06 29   0.01312 0.9981    75.2   104.1    19.7
    ...
    2014 10 09    10 17 33.4 +04 49 55   0.07016 0.9474    41.2   136.0    25.8
    ...
    2014 10 24    10 45 44.6 +02 23 49   0.1871  0.8822    48.5   122.3    26.4
    
    A. U. Tomatic                (C) Copyright 2014 MPC           M.P.E.C. 2014-S70
    

    Read MPEC 2014-S69 Read MPEC 2014-S71


    MPEC number:

    Enter an MPEC number in one of the following forms:

    • 1997-B01 (the full form)
    • J97B01 (the packed version of the full form)
    • B01 (the abbreviated form)